Miscellaneous Local Product
Issued by NWS North Platte, NE

Home | Current Version | Previous Version | Text Only | Print | Product List | Glossary On
Versions: 1 2 3 4 5 6 7 8 9 10 11 12 13 14 15 16 17 18 19 20 21 22 23 24 25 26 27 28 29 30 31 32 33 34 35 36 37 38 39 40 41 42 43 44 45 46 47 48 49 50
928
AXUS43 KLBF 240910
MISLBF


WESTERN AND NORTH CENTRAL NEBRASKA HOURLY WEATHER ROUNDUP
NATIONAL WEATHER SERVICE NORTH PLATTE NE
300 AM CST TUE JAN 24 2017

NOTE: "FAIR" INDICATES FEW OR NO CLOUDS BELOW 12,000 FEET WITH NO
SIGNIFICANT WEATHER AND/OR OBSTRUCTIONS TO VISIBILITY.

NOTE: STATIONS NOT REPORTING VARIABLES SUCH AS SKY/WEATHER OR
PRESSURE ARE PROVIDED BY RAWS AND APRS NETWORKS AND ARE NOT UNDER
NATIONAL WEATHER SERVICE QUALITY CONTROL.

...OBSERVATIONS IN AND NEAR THE EASTERN PANHANDLE OF NEBRASKA...

CITY           SKY/WX    TMP DP  RH WIND       PRES   REMARKS
PINE RIDGE     LGT SNOW  25  25 100 N10       29.68R VSB 1   WCI  15
CHADRON        LGT SNOW  23  21  92 N10       29.68F VSB 3/4 WCI  12
ALLIANCE       SNOW      25  23  92 N13       29.60R VSB 1/2 WCI  14
SIDNEY         CLOUDY    29  27  92 N17       29.53F WCI  17
CRESCENT LAKE    N/A     28  28 100 N13         N/A  WCI  17
$$

...OBSERVATIONS IN NORTHERN NEBRASKA AND FAR SOUTHERN SOUTH DAKOTA...

CITY           SKY/WX    TMP DP  RH WIND       PRES   REMARKS
WINNER         CLOUDY    31  29  92 E8        29.71S FOG     WCI  23
VALENTINE      CLOUDY    30  27  88 CALM      29.67S FOG
THEDFORD       FOG       32  31  99 E6        29.62S VSB 1/2 WCI  26
AINSWORTH      FOG       31  31 100 E3        29.66F VSB 1/2
O`NEILL        CLOUDY    31  31 100 SE8       29.70F FOG     WCI  24
ORD            FOG       31  29  92 E10       29.67S VSB 1/4 WCI  22
BROKEN BOW     FOG       31  31 100 E10       29.62S VSB 1/4 WCI  22
VALENTINE NWR    N/A     29  29 100 CALM        N/A
BUTTE            N/A     29  28  95 E6          N/A  WCI  23
HALSEY           N/A     30  30 100 E6          N/A  WCI  24
CHAMBERS         N/A     30  30  99 CALM        N/A
EWING            N/A     30  29  96 SE3         N/A
$$

...OBSERVATIONS IN SOUTHWEST NEBRASKA AND FAR NORTHEAST COLORADO...

CITY           SKY/WX    TMP DP  RH WIND       PRES   REMARKS
HOLYOKE        CLOUDY    34  32  93 E10G20    29.49R WCI  26
IMPERIAL       CLOUDY    32  30  92 E10       29.50R WCI  24
OGALLALA       CLOUDY    33  32  96 E12       29.53S FOG     WCI  24
NORTH PLATTE   CLOUDY    32  30  92 E16       29.56F FOG     WCI  21
MCCOOK         CLOUDY    33  31  92 E18G25    29.52F WCI  22
LEXINGTON      CLOUDY    32  31  98 E14       29.59S FOG     WCI  22
STAPLETON        N/A     30  29  97 CALM        N/A
GOTHENBURG       N/A     32  28  84 E12         N/A  WCI  23
CALLAWAY         N/A     30  29  96 E12         N/A  WCI  20
$$

...OBSERVATIONS IN CENTRAL LINCOLN COUNTY AREA...

CITY           SKY/WX    TMP DP  RH WIND       PRES   REMARKS
N.P. AIRPORT   CLOUDY    32  30  92 E16       29.56F FOG     WCI  21
N.P. DOWNTOWN    N/A     32  32 100 E8G16       N/A  WCI  25
N.P. SOUTHEAST   N/A     31  29  93 E8          N/A  WCI  24
N.P. HILLCREST   N/A     32  31  96 E15         N/A  WCI  22
$$

...SOME OBSERVATIONS FROM AROUND THE REGION...

CITY           SKY/WX    TMP DP  RH WIND       PRES   REMARKS
LARAMIE        CLOUDY    19  12  74 SW5       29.48F WCI  12
CHEYENNE       CLOUDY    30  28  92 W7        29.51R WCI  23
DENVER         CLOUDY    31  28  89 W7        29.51R WCI  24
AKRON          CLOUDY    30  25  81 NW14      29.49R WCI  19
SCOTTSBLUFF    LGT SNOW  26  21  81 NE17      29.59S WCI  13
RAPID CITY     CLOUDY    23  21  92 N21       29.72S FOG     WCI   8
BISMARCK       CLOUDY    25  20  81 N10       29.85R WCI  15
PIERRE         CLOUDY    28  26  92 E9        29.76R WCI  19
SIOUX FALLS    CLOUDY    32  30  92 SE8       29.80S WCI  25
OMAHA          CLOUDY    31  26  82 E8        29.81F WCI  23
GRAND ISLAND   CLOUDY    32  31  96 E10       29.67F FOG     WCI  24
KANSAS CITY    CLEAR     31  27  85 E13       29.79S WCI  21
WICHITA        CLOUDY    41  31  67 SE12      29.58F
OKLAHOMA CITY  PTCLDY    43  35  73 S12       29.61F
DALLAS         CLOUDY    53  39  59 SE7       29.69F
AMARILLO       PTCLDY    44  31  60 S17       29.59R
DODGE CITY     CLEAR     37  32  82 S10       29.49R WCI  30
HAYS           CLOUDY    35  30  82 E8        29.51F WCI  29
GOODLAND       CLOUDY    29  27  92 N8        29.44F WCI  21
$$




USA.gov is the U.S. government's official web portal to all federal, state and local government web resources and services.